Glendive, MT

3:43 AM MST on December 13, 2019 (GMT -0700)
Dawson Community

Weather History for KGDV - October, 2019

Change the Weather History Date:

Sunday, October 20, 2019

  Actual Average Record
Temperature  
Mean Temperature 38 °F -  
Max Temperature 49 °F 52 °F 84 °F (2003)
Min Temperature 26 °F 30 °F 26 °F (2019)
Degree Days  
Heating Degree Days 27    
Month to date heating degree days 451  
Year to date heating degree days 6318  
Moisture  
Dew Point 27 °F    
Average Humidity 65    
Maximum Humidity 82    
Minimum Humidity 43    
Precipitation  
Precipitation 0.00 in - - ()
Month to date precipitation 0.40  
Year to date precipitation 17.57  
Sea Level Pressure  
Sea Level Pressure 29.83 in    
Wind  
Wind Speed 8 mph (NNW)    
Max Wind Speed 16 mph    
Max Gust Speed 21 mph    
Visibility 10 miles    
Events      
Averages and records for this station are not official NWS values.
T = Trace of Precipitation, MM = Missing Value Source: NWS Daily Summary

Daily Weather History Graph

Daily Weather History Graph

Search for Another Location

Airport or City:

Astronomy

Oct. 20, 2019 Rise Set
Actual Time 7:24 AM MDT 6:02 PM MDT
Civil Twilight 6:53 AM MDT 6:33 PM MDT
Nautical Twilight 6:17 AM MDT 7:09 PM MDT
Astronomical Twilight 5:42 AM MDT 7:44 PM MDT
Moon 10:58 PM MDT (10/20) 2:10 PM MDT (10/20)
Length of Visible Light 11h 40m
Length of Day
10h 38m
Waning Gibbous, 58% of the Moon is Illuminated
Oct 20
Waning Gibbous
Oct 21
Last Quarter
Oct 27
New
Nov 4
First Quarter
Nov 12
Full

Hourly Weather History & Observations

Time (MDT) Temp. Windchill Dew Point Humidity Pressure Visibility Wind Dir Wind Speed Gust Speed Precip Events Conditions
12:56 AM 35.1 °F 31.0 °F 24.1 °F 64% 29.64 in 10.0 mi ENE 4.6 mph - N/A   Clear
1:56 AM 32.0 °F 26.4 °F 26.1 °F 79% 29.65 in 10.0 mi NNE 5.8 mph - N/A   Clear
2:56 AM 33.1 °F 26.9 °F 25.0 °F 72% 29.65 in 10.0 mi North 6.9 mph - N/A   Clear
3:56 AM 32.0 °F 25.6 °F 24.1 °F 73% 29.67 in 10.0 mi North 6.9 mph - N/A   Clear
4:56 AM 30.9 °F 24.3 °F 26.1 °F 82% 29.69 in 10.0 mi North 6.9 mph - N/A   Clear
5:56 AM 33.1 °F 25.5 °F 25.0 °F 72% 29.70 in 10.0 mi NNW 9.2 mph - N/A   Partly Cloudy
6:56 AM 30.9 °F 24.3 °F 26.1 °F 82% 29.74 in 10.0 mi North 6.9 mph - N/A   Partly Cloudy
7:56 AM 34.0 °F 27.2 °F 25.0 °F 70% 29.77 in 10.0 mi NNW 8.1 mph - N/A   Partly Cloudy
8:56 AM 39.0 °F 32.3 °F 27.0 °F 62% 29.80 in 10.0 mi NNW 10.4 mph - N/A   Clear
9:56 AM 44.1 °F 37.7 °F 28.0 °F 53% 29.81 in 10.0 mi NNW 12.7 mph - N/A   Clear
10:56 AM 48.9 °F - 27.0 °F 43% 29.82 in 10.0 mi North 9.2 mph - N/A   Clear
11:56 AM 46.0 °F 39.3 °F 28.9 °F 51% 29.84 in 10.0 mi NNW 16.1 mph - N/A   Clear
12:56 PM 48.0 °F - 30.0 °F 50% 29.85 in 10.0 mi North 12.7 mph - N/A   Clear
1:56 PM 48.9 °F - 30.9 °F 50% 29.86 in 10.0 mi North 11.5 mph - N/A   Overcast
2:56 PM 48.9 °F - 30.9 °F 50% 29.87 in 10.0 mi North 13.8 mph 20.7 mph N/A   Partly Cloudy
3:56 PM 46.9 °F - 32.0 °F 56% 29.89 in 10.0 mi North 16.1 mph - N/A   Overcast
4:56 PM 46.0 °F 39.9 °F 32.0 °F 58% 29.92 in 10.0 mi NNW 13.8 mph - N/A   Mostly Cloudy
5:56 PM 44.1 °F 39.0 °F 30.9 °F 60% 29.94 in 10.0 mi NNW 9.2 mph - N/A   Clear
6:56 PM 37.9 °F 30.9 °F 28.9 °F 70% 29.96 in 10.0 mi NNW 10.4 mph - N/A   Clear
7:56 PM 36.0 °F 29.0 °F 27.0 °F 70% 29.97 in 10.0 mi NNW 9.2 mph - N/A   Clear
8:56 PM 34.0 °F 26.6 °F 25.0 °F 70% 29.97 in 10.0 mi NNW 9.2 mph - N/A   Clear
9:56 PM 32.0 °F 24.2 °F 24.1 °F 73% 29.98 in 10.0 mi NNW 9.2 mph - N/A   Clear
10:56 PM 30.9 °F 24.3 °F 24.1 °F 76% 29.96 in 10.0 mi NNW 6.9 mph - N/A   Clear
11:56 PM 28.0 °F 20.8 °F 23.0 °F 81% 29.97 in 10.0 mi NNW 6.9 mph - N/A   Clear